Accueil
METAR-TAF:

METAR-TAF

Aéroports :

Goeree Le, Pays-Bas

Plate-forme pétrolière

latitude: 51-55-33N, longitude: 3-40-12E, altitude: 19 m

Observation

Le bulletin a été fait il y a 54 minutes, à 00:55 UTC
Vent 26 kt de ouest/sud-ouest avec des rafales jusqu'à 29 kt
Température 17°C
Humidité 88%
Pression 1014 hPa
Visibilité 10 km ou plus

METAR: EHSC 240055Z AUTO 25026G29KT 9999 ///////// 17/15 Q1014 W18/H18

Heure: 03:49 (01:49 UTC)


TAF: absent

Observations et prévisions météorologiques de plus de 4000 aéroports (messages METAR et TAF).

Les stations disponibles sont représentées par des disques jaunes et rouges sur la carte.

Passer la souris dessus pour voir le nom de la station.

Cliquer dessus pour voir les observations et prévisions météorologiques.

Pour changer de carte: cliquez sur les boutons verts avec une croix noire pour zoomer, sur le bouton vert avec un tiret pour effectuer un zoom arrière, ou sur les flèches vertes pour les cartes adjacentes.


METAR-TAF: